STARLINK-5972, 56362

Orbit data source: Space-Track

STARLINK-5972, 56362 is a payload satellite owned by SpaceX/Seattle (US) in SSO that was launched on Thu, 27 Apr 2023 UTC via an FALCON 9 launch vehicle from the Air Force Western Test Range (AFWTR). Payload-class satellites include a variety of spacecraft equipped with specific instruments for various scientific and technological missions. These include communications satellites like Starlink; space stations such as the ISS; scientific satellites like the Hubble; Earth observation satellites from companies like Planet Labs, Umbra, and HawkEye 360; GPS; miniature CubeSats for education and research; and military/defense satellites.

Loading next visibility...
Identifier
56362, 2023-058AX
Orbit
SSO
Country
Flag of USUS
Related business
Manufacturer
SpaceX/Seattle
Mission
Operational Commercial Communications
Bus & Motor
STARLINK, Unknown motor
Mass
300 kg wet, ~260 kg dry
Launch date (UTC)
2023-04-27 (3 years ago)
Launch vehicle
FALCON 9
Launch site
Air Force Western Test Range (AFWTR)
Object type
Payload
Rocket body
Debris
Shape & HBR
Box + 1 Pan, 10.1 m
Radar Cross Section
11.087 m², Large (>1 m²)

Expand to show TLE details & history
Last TLE update: 2 days ago

TLE from 2 days ago
0 STARLINK-5972
1 56362U 23058AX  26171.41406343  .00000063  00000-0  82833-5 0  9990
2 56362  97.3350 171.3823 0001436  28.3044 331.8261 15.05658019173657
Epoch: 2026-06-20T09:56Z
TLE epoch observation values (Epoch: 2026-06-20T09:56:15.080Z)
Latitude
-0.00005°
Longitude
113.69044°
Altitude
551.682 km
Speed
7.586 km/s
True Right ascension
11h 25m 31s
True Declination
0° 00' 00"
Sunlit
Object was in daylight at epoch
Visualization orbit readout
Latitude
Unknown
Longitude
Unknown
Altitude
Unknown
Speed
Unknown
Apparent Right ascension
Unknown
Apparent Declination
Unknown
Sunlit
N/A
Visualization observer readout
Local Sidereal Time
21:27:58
Azimuth
Unknown
Elevation
Unknown
Doppler factor
Unknown
Orbital elements
Apogee altitude
547.463 km
Perigee altitude
545.474 km
Semi-major axis
6,924.606 km
Eccentricity
0.00014
Inclination
97.335°
RAAN
171.3823°
Arg. of periapsis
28.3044°
True anomaly
331.81833°
Mean anomaly
331.8261°
Eccentric anomaly
331.82221°
Mean motion
3.76661 °/min
Orbital period
95.58 mins
BSTAR
0.0000082833
Loading maneuver chart data...
Computing Atmospheric mass density...
Loading historical data...
Loading historical data...
Loading historical data...
Loading historical data...
Loading historical data...
Loading historical data...
Loading historical data...

Documentation

Showing up to 5 results
|